Temperature
17 17 17 17 17 16 16 17 17 16 16 16 16 16 16 16 16 16 16 16 16 16 16 16 16 15 15 15 15 15 15 15 15 15 15 15 15 15
17 17 17 16 16 16 16 16 16 16 16 16 16 16 16 16 16 16 16 16 16 16 16 15 15 15 15 15 15 15 15 15 15 15 15 15 15 15
16 16 16 16 16 16 16 16 16 16 16 16 16 16 16 16 16 16 15 15 15 15 15 15 15 15 15 15 15 15 15 15 15 15 14 14 14 14
16 16 16 16 16 16 16 16 16 16 15 15 15 15 15 15 15 15 15 15 15 15 15 15 15 15 15 15 14 15 15 14 14 14 14 14 14 14
16 16 15 15 15 15 15 15 15 15 15 15 15 15 15 15 15 15 15 15 15 15 14 14 14 14 14 14 14 14 14 14 14 14 14 14 14 14
15 15 15 15 15 15 15 15 15 15 15 14 14 14 14 14 14 14 14 14 14 14 14 14 14 14 14 14 14 14 14 14 14 14 14 14 14 14
15 15 15 15 14 14 14 14 14 14 14 14 14 14 14 14 14 14 14 14 14 14 14 14 14 14 14 13 13 13 13 13 13 13 13 13 13 13
15 15 15 14 14 14 14 14 14 14 14 13 13 13 13 13 13 13 13 13 13 13 13 13 13 13 13 13 13 13 13 13 13 13 13 13 13 13
15 15 14 14 14 14 14 14 13 13 13 13 13 13 13 13 13 13 13 13 13 13 13 13 13 13 13 12 12 12 12 12 12 12 12 12 12 12
14 14 14 14 14 14 14 13 13 13 13 13 13 13 12 12 12 12 12 12 12 12 12 12 12 12 12 12 12 12 12 12 12 12 12 12 12 12
14 14 14 14 14 13 13 13 13 13 13 12 12 12 12 12 12 12 12 12 12 12 12 12 12 12 12 12 12 12 12 12 11 11 11 11 11 11
14 14 13 13 13 13 13 13 13 13 13 13 12 12 12 12 12 12 12 12 11 11 11 11 11 11 11 11 11 11 11 11 11 11 11 11 11 11
14 13 13 13 13 13 13 13 12 12 12 12 12 12 12 12 12 11 11 11 11 11 11 11 11 11 11 11 11 11 11 11 11 11 11 11 11 11
13 13 13 13 13 13 13 12 12 12 12 12 12 12 12 12 11 11 11 11 11 11 11 11 11 11 11 10 10 11 11 11 11 11 11 10 10 10
13 13 13 13 13 12 12 12 12 12 12 12 12 12 11 11 11 11 11 11 11 11 10 10 10 10 10 10 10 10 10 10 10 10 10 10 10 10
13 13 13 13 12 12 12 12 12 12 11 11 11 11 11 11 11 11 11 11 10 10 10 10 10 10 10 10 10 10 10 10 10 10 10 10 10 10
13 13 13 12 12 12 12 12 12 12 11 11 11 11 11 11 11 10 10 10 10 10 10 10 10 10 10 10 10 10 10 10 10 10 10 10 10 10
13 13 12 12 12 12 12 12 12 11 11 11 11 11 11 10 10 10 10 10 10 10 10 9 9 9 9 10 10 10 10 10 9 9 9 9 9 9
12 12 12 12 12 12 12 12 11 11 11 11 11 11 10 10 10 10 10 10 9 9 9 9 9 9 9 9 9 9 9 9 9 9 9 9 9 9
12 12 12 12 12 11 11 11 11 11 11 11 11 10 10 10 10 9 9 9 9 9 9 9 9 9 9 9 9 9 9 9 9 9 9 9 9 9
12 12 12 12 12 11 11 11 11 11 11 10 10 10 10 10 9 9 9 9 9 9 9 9 9 9 9 9 8 9 9 9 9 9 8 8 8 8
12 12 11 11 11 11 11 11 11 10 10 10 10 10 9 9 9 9 9 9 9 8 9 9 8 8 8 8 8 8 8 9 9 8 8 8 8 8
12 11 11 11 11 11 11 11 10 10 10 10 10 9 9 9 9 9 8 8 8 8 8 8 8 8 8 8 8 8 8 8 8 8 8 8 8 8
Wind_Speed
1 1 1 1 1 1 1 3 3 1 3 3 2 2 1 2 3 4 5 7 7 7 7 7 7 7 7 7 7 7 7 8 8 8 8 9 11 12
1 1 1 1 1 1 1 1 2 3 3 3 2 2 2 1 2 2 4 6 7 7 6 5 5 5 6 6 6 6 6 6 7 7 7 8 9 10
1 1 1 1 1 2 1 1 1 2 2 3 2 2 2 2 2 1 2 4 4 5 5 5 5 5 5 4 5 5 5 5 5 5 6 6 7 8
1 1 2 1 2 2 2 1 1 1 2 2 2 2 2 2 2 2 2 1 3 3 4 4 5 4 3 3 2 3 3 3 3 3 4 5 6 7
1 0 1 1 1 2 1 1 1 1 1 2 2 2 1 1 2 2 2 1 1 2 3 4 4 3 3 3 3 3 3 3 3 3 3 4 5 5
1 1 1 0 1 1 1 1 1 1 0 0 1 2 2 2 1 1 3 2 2 2 1 2 3 3 3 2 3 3 3 3 3 3 3 4 4 5
1 1 1 0 0 1 0 0 0 0 0 0 1 2 2 1 1 2 2 3 2 1 1 1 1 1 2 4 3 3 3 3 3 3 3 3 3 4
1 2 1 1 2 1 1 1 1 1 2 1 1 1 3 2 2 2 1 1 2 2 0 2 0 1 2 3 3 3 3 3 2 2 2 2 2 3
2 2 1 1 1 1 1 2 2 1 3 4 3 3 3 3 2 2 2 2 3 3 1 2 1 1 2 3 3 3 4 4 3 2 2 2 2 2
2 2 2 2 1 1 0 1 2 2 2 2 4 5 4 4 4 4 4 2 2 2 1 1 2 2 2 2 4 4 4 4 4 3 2 2 2 2
3 2 2 2 3 2 1 0 2 3 3 2 3 4 4 4 2 1 0 1 1 2 1 1 1 2 2 2 3 4 5 5 5 4 3 3 2 2
2 2 3 3 3 3 2 2 2 3 3 4 4 4 3 2 2 3 3 2 1 2 2 1 1 0 1 2 2 2 4 5 6 5 5 4 3 2
3 3 3 5 5 5 4 3 5 4 2 3 3 3 2 2 2 2 3 4 3 3 3 2 1 1 1 1 2 2 2 3 3 4 5 5 5 4
4 4 5 6 6 6 5 6 6 3 1 1 2 2 3 3 3 3 3 3 4 5 5 3 2 2 2 1 2 2 2 2 2 2 3 4 5 5
4 5 6 7 6 5 6 6 4 2 2 1 3 4 3 3 2 1 1 0 1 3 3 3 3 3 3 2 2 2 1 2 2 2 2 2 3 3
3 3 4 5 4 4 4 3 3 3 3 3 3 3 1 1 1 1 1 0 1 2 3 2 3 3 2 2 3 3 2 3 2 3 3 2 3 5
1 1 1 1 2 2 2 3 2 2 3 2 2 2 1 1 1 1 1 1 1 2 2 2 2 2 3 4 3 3 3 2 3 3 2 2 3 4
3 2 3 3 4 4 4 3 3 3 3 3 2 2 2 2 2 1 1 2 2 2 2 2 1 1 2 2 4 4 3 3 3 2 2 3 3 4
3 3 4 4 4 4 4 4 4 4 3 2 2 2 2 2 2 2 1 1 2 2 3 2 1 2 2 3 4 4 4 3 2 2 3 3 4 5
3 4 4 4 4 4 4 4 3 3 2 3 3 2 2 2 2 2 2 2 2 2 2 2 3 3 5 5 4 4 6 5 4 3 3 2 2 3
4 4 4 4 4 4 3 3 3 3 3 3 3 3 3 3 3 3 3 3 3 3 3 4 5 6 3 1 1 3 3 5 6 4 4 2 2 2
4 4 4 4 4 3 3 3 2 3 3 3 3 3 3 3 3 4 3 3 3 4 5 4 3 1 1 2 3 4 3 3 3 5 5 6 4 4
5 4 4 4 3 3 3 3 3 3 3 3 3 3 3 3 3 3 4 4 3 3 3 3 2 1 2 3 3 3 4 3 2 2 3 6 8 9
Wind_Direction
329 324 311 297 289 249 199 174 173 247 280 271 292 297 269 199 218 205 203 206 210 218 226 222 220 223 229 233 232 230 230 232 228 223 222 219 217 218
320 5 353 316 331 321 256 214 176 187 240 260 266 275 284 296 293 224 218 212 213 215 222 224 225 226 228 233 233 225 220 224 226 222 221 219 215 213
337 6 337 339 343 328 340 326 240 178 218 281 293 304 324 314 327 305 247 226 223 219 217 216 222 225 224 232 233 217 210 214 218 219 218 218 218 215
309 3 347 5 2 345 358 343 295 211 185 248 293 305 304 296 311 319 324 258 222 227 216 210 223 218 212 220 218 211 207 208 210 208 210 211 215 217
226 190 292 47 356 335 346 339 320 338 153 195 263 285 299 315 332 331 340 318 265 261 229 221 223 212 202 214 207 198 192 188 185 191 201 209 212 211
223 205 208 145 253 286 324 315 334 46 65 163 291 308 308 305 356 334 330 318 298 294 261 223 227 217 215 220 206 188 178 177 185 189 197 207 211 209
289 268 219 231 249 255 270 233 89 70 64 183 290 329 326 337 297 281 294 303 306 292 293 286 251 239 232 232 226 210 201 202 210 212 218 223 219 213
263 285 279 304 325 342 342 143 152 173 194 200 240 268 274 268 269 276 298 327 305 289 202 291 246 254 240 223 228 226 216 211 213 220 228 234 230 213
229 249 280 298 335 332 354 17 347 264 186 185 204 236 245 246 239 258 259 240 252 268 190 282 283 262 252 240 227 230 221 210 206 206 216 238 231 224
233 230 235 262 270 176 133 353 325 313 274 214 212 233 239 235 222 223 230 246 294 299 144 233 284 275 267 246 238 225 220 219 215 213 211 226 227 229
259 252 226 231 257 195 153 255 314 309 303 287 264 263 265 252 214 144 88 95 317 295 292 174 270 307 298 279 257 239 229 229 228 225 227 223 222 218
267 261 238 228 238 201 183 190 255 281 310 324 322 318 307 288 219 188 190 182 204 274 268 166 223 42 323 300 284 248 238 241 237 235 233 225 216 198
235 248 246 236 235 222 209 214 234 247 273 278 290 300 306 299 269 228 203 188 191 236 233 174 198 183 183 285 299 269 234 244 239 244 239 228 218 199
224 235 240 236 236 234 233 243 247 250 256 277 289 281 278 273 271 261 241 224 218 221 223 191 192 191 173 225 273 282 268 256 227 230 238 232 235 231
226 233 243 243 240 244 249 250 244 235 230 245 262 256 252 252 257 278 293 308 304 275 247 210 191 193 181 197 218 232 259 265 224 214 227 222 224 220
253 265 266 260 250 247 261 258 238 227 218 230 247 252 256 250 252 225 204 279 4 313 311 272 213 184 195 216 207 225 219 226 236 230 215 225 232 226
213 297 299 288 269 264 265 254 246 242 237 239 232 242 248 242 248 225 167 144 185 252 289 315 303 239 210 202 214 233 231 238 232 215 198 229 241 235
160 222 243 248 247 247 244 246 240 238 237 230 220 221 229 229 235 229 183 184 219 241 248 256 300 349 352 293 218 211 219 228 234 218 195 209 245 245
184 225 235 240 244 245 244 236 235 233 218 206 203 207 218 222 218 219 217 222 240 252 255 239 220 188 222 268 274 221 204 226 223 226 219 212 226 240
217 226 233 236 235 237 240 238 237 226 209 211 210 206 203 205 221 231 223 220 234 244 260 256 230 220 221 234 251 261 229 210 207 217 227 237 251 267
226 230 231 233 232 229 230 226 219 215 214 209 213 214 213 207 221 234 231 236 231 234 243 253 254 251 236 175 254 279 270 241 218 211 205 211 237 240
223 229 235 233 227 221 221 217 215 215 213 212 218 225 222 214 220 226 226 230 236 239 247 262 277 258 193 210 237 251 268 280 270 252 226 212 202 216
220 223 228 230 225 214 210 211 214 222 213 212 218 222 220 225 230 226 228 230 237 247 251 262 275 248 229 219 230 241 251 258 254 268 275 274 253 250
Height
1519 1519 1519 1518 1518 1518 1517 1517 1517 1515 1515 1515 1515 1514 1514 1513 1512 1512 1511 1511 1510 1510 1509 1509 1508 1508 1507 1507 1506 1506 1506 1506 1507 1507 1508 1509 1511 1512
1518 1518 1517 1517 1516 1516 1515 1515 1515 1514 1513 1513 1512 1512 1512 1511 1510 1509 1508 1508 1508 1507 1506 1506 1505 1505 1504 1504 1503 1503 1503 1503 1504 1504 1505 1506 1508 1509
1517 1516 1515 1515 1514 1513 1513 1513 1512 1512 1511 1510 1510 1510 1509 1508 1508 1507 1506 1505 1504 1504 1503 1503 1503 1502 1501 1501 1500 1500 1500 1500 1501 1501 1502 1503 1504 1506
1514 1514 1513 1513 1512 1511 1511 1510 1510 1509 1509 1508 1508 1507 1507 1506 1505 1505 1504 1503 1502 1501 1501 1500 1500 1499 1498 1498 1498 1497 1497 1497 1498 1498 1499 1500 1501 1502
1512 1512 1511 1511 1510 1509 1508 1508 1507 1507 1507 1506 1505 1504 1504 1503 1503 1502 1501 1500 1500 1499 1498 1498 1497 1497 1496 1496 1495 1495 1494 1495 1495 1495 1496 1496 1497 1499
1510 1510 1509 1508 1507 1507 1506 1505 1505 1504 1504 1503 1502 1502 1501 1500 1500 1499 1498 1498 1497 1497 1496 1496 1495 1495 1494 1493 1493 1492 1492 1492 1492 1493 1493 1494 1494 1495
1508 1507 1507 1506 1505 1504 1503 1503 1503 1502 1501 1501 1500 1499 1498 1497 1497 1496 1496 1495 1495 1494 1494 1493 1493 1492 1492 1491 1490 1490 1490 1490 1490 1490 1490 1491 1491 1492
1506 1505 1504 1504 1503 1502 1501 1501 1500 1499 1499 1498 1497 1496 1496 1495 1495 1494 1493 1493 1492 1492 1491 1491 1490 1490 1489 1489 1488 1488 1488 1488 1488 1488 1488 1488 1488 1489
1503 1503 1502 1501 1501 1500 1499 1498 1498 1497 1497 1496 1495 1494 1494 1493 1492 1492 1491 1490 1490 1490 1489 1488 1488 1487 1487 1487 1487 1487 1486 1486 1486 1486 1486 1486 1486 1486
1501 1500 1500 1499 1499 1498 1497 1496 1495 1495 1494 1494 1493 1492 1492 1491 1490 1490 1489 1489 1488 1488 1487 1485 1485 1485 1485 1485 1485 1485 1484 1484 1484 1484 1484 1484 1484 1484
1498 1498 1498 1497 1497 1496 1495 1494 1493 1492 1492 1491 1490 1490 1489 1489 1488 1487 1487 1486 1485 1484 1484 1483 1483 1482 1483 1483 1483 1482 1482 1482 1482 1482 1482 1482 1482 1483
1495 1495 1495 1495 1494 1494 1493 1491 1490 1489 1489 1488 1488 1487 1487 1486 1485 1485 1484 1483 1482 1482 1481 1481 1481 1481 1480 1480 1480 1480 1480 1480 1480 1480 1480 1480 1480 1480
1492 1492 1492 1492 1492 1491 1490 1489 1488 1487 1486 1485 1484 1483 1483 1482 1482 1481 1481 1480 1480 1479 1479 1479 1478 1478 1478 1478 1478 1478 1478 1478 1478 1478 1478 1478 1478 1478
1488 1489 1489 1489 1488 1488 1487 1487 1486 1485 1483 1482 1481 1480 1479 1479 1478 1478 1478 1477 1477 1477 1477 1476 1475 1475 1475 1475 1475 1475 1476 1476 1475 1475 1476 1476 1476 1476
1485 1485 1485 1485 1485 1485 1484 1483 1483 1482 1480 1479 1477 1477 1476 1475 1475 1474 1474 1474 1474 1474 1473 1473 1473 1473 1472 1472 1472 1472 1472 1473 1473 1473 1473 1473 1473 1473
1482 1482 1482 1482 1482 1481 1481 1480 1479 1478 1477 1476 1475 1474 1473 1472 1471 1471 1470 1470 1470 1470 1470 1470 1470 1470 1469 1469 1469 1469 1470 1470 1470 1470 1470 1470 1470 1470
1479 1478 1478 1478 1478 1477 1477 1476 1476 1475 1474 1473 1472 1471 1470 1469 1468 1468 1467 1467 1467 1466 1466 1467 1467 1467 1467 1467 1466 1466 1466 1467 1467 1467 1467 1466 1467 1467
1475 1474 1474 1474 1473 1473 1472 1472 1472 1471 1470 1469 1469 1468 1467 1466 1465 1465 1464 1464 1464 1463 1463 1463 1463 1463 1464 1463 1464 1463 1463 1463 1463 1464 1464 1463 1463 1463
1471 1470 1470 1470 1470 1469 1469 1468 1467 1467 1466 1466 1465 1465 1464 1463 1462 1462 1461 1461 1461 1461 1460 1460 1460 1460 1459 1459 1459 1460 1459 1459 1459 1460 1460 1460 1459 1459
1466 1466 1466 1466 1465 1465 1464 1464 1463 1463 1462 1462 1461 1461 1461 1460 1459 1459 1458 1458 1458 1457 1457 1457 1456 1456 1455 1455 1455 1455 1456 1455 1455 1455 1455 1455 1456 1456
1462 1462 1462 1462 1461 1461 1460 1460 1459 1459 1458 1458 1458 1457 1457 1456 1456 1455 1455 1454 1454 1454 1453 1453 1453 1453 1452 1452 1451 1450 1451 1452 1452 1451 1451 1451 1451 1450
1458 1458 1458 1458 1458 1457 1456 1456 1455 1455 1454 1454 1453 1453 1453 1453 1452 1452 1451 1451 1450 1450 1450 1450 1449 1449 1448 1447 1446 1446 1446 1447 1448 1448 1448 1448 1446 1445
1454 1454 1454 1454 1454 1453 1453 1452 1451 1451 1450 1450 1449 1449 1449 1449 1448 1448 1448 1447 1447 1446 1446 1446 1446 1445 1444 1444 1443 1442 1442 1442 1443 1443 1443 1443 1443 1443